H1 CPF 2 NER 2025 10 17 9 290 01 glonass138 H2 1805301 9138 43508 2025 10 17 0 0 0 2025 10 20 23 45 0 900 1 1 0 0 0 1 H9 10 0 60965 0.00000 0 14980289.650 20537904.951 -2294894.228 10 0 60965 900.00000 0 15187304.726 20493560.233 934604.340 10 0 60965 1800.00000 0 15137936.277 20129144.950 4145982.451 10 0 60965 2700.00000 0 14793616.486 19486420.612 7276976.476 10 0 60965 3600.00000 0 14126280.016 18615723.190 10266883.470 10 0 60965 4500.00000 0 13119768.126 17573729.683 13057732.985 10 0 60965 5400.00000 0 11770744.079 16420977.237 15595405.924 10 0 60965 6300.00000 0 10089080.531 15219238.943 17830679.161 10 0 60965 7200.00000 0 8097701.576 14028866.259 19720176.090 10 0 60965 8100.00000 0 5831884.653 12906209.233 21227205.199 10 0 60965 9000.00000 0 3338049.917 11901222.351 22322470.847 10 0 60965 9900.00000 0 672085.844 11055356.053 22984642.821 10 0 60965 10800.00000 0 -2102720.936 10399822.054 23200773.812 10 0 60965 11700.00000 0 -4918067.240 9954305.071 22966556.694 10 0 60965 12600.00000 0 -7703228.923 9726175.077 22286416.284 10 0 60965 13500.00000 0 -10387763.995 9710233.409 21173433.279 10 0 60965 14400.00000 0 -12904212.054 9889003.855 19649101.002 10 0 60965 15300.00000 0 -15190678.515 10233557.052 17742918.718 10 0 60965 16200.00000 0 -17193196.553 10704834.146 15491828.387 10 0 60965 17100.00000 0 -18867768.479 11255414.471 12939504.755 10 0 60965 18000.00000 0 -20182001.249 11831653.067 10135511.767 10 0 60965 18900.00000 0 -21116267.533 12376097.874 7134341.114 10 0 60965 19800.00000 0 -21664343.527 12830084.178 3994351.380 10 0 60965 20700.00000 0 -21833496.598 13136395.943 776628.582 10 0 60965 21600.00000 0 -21644019.207 13241880.459 -2456209.193 10 0 60965 22500.00000 0 -21128229.053 13099904.397 -5641238.984 10 0 60965 23400.00000 0 -20328978.207 12672545.916 -8716467.007 10 0 60965 24300.00000 0 -19297734.962 11932428.667 -11622044.419 10 0 60965 25200.00000 0 -18092320.365 10864118.764 -14301440.078 10 0 60965 26100.00000 0 -16774396.003 9465024.511 -16702546.493 10 0 60965 27000.00000 0 -15406810.055 7745759.953 -18778696.874 10 0 60965 27900.00000 0 -14050914.290 5729956.122 -20489573.166 10 0 60965 28800.00000 0 -12763965.600 3453527.320 -21801987.456 10 0 60965 29700.00000 0 -11596721.591 963422.805 -22690521.941 10 0 60965 30600.00000 0 -10591331.109 -1684084.267 -23138015.630 10 0 60965 31500.00000 0 -9779607.767 -4425499.426 -23135889.129 10 0 60965 32400.00000 0 -9181758.010 -7192513.655 -22684302.020 10 0 60965 33300.00000 0 -8805615.950 -9914614.568 -21792140.615 10 0 60965 34200.00000 0 -8646415.760 -12521793.855 -20476837.030 10 0 60965 35100.00000 0 -8687109.837 -14947239.123 -18764023.619 10 0 60965 36000.00000 0 -8899218.103 -17129899.099 -16687029.835 10 0 60965 36900.00000 0 -9244171.619 -19016816.435 -14286231.465 10 0 60965 37800.00000 0 -9675093.120 -20565132.196 -11608264.887 10 0 60965 38700.00000 0 -10138938.860 -21743679.686 -8705121.500 10 0 60965 39600.00000 0 -10578911.095 -22534102.385 -5633139.779 10 0 60965 40500.00000 0 -10937039.285 -22931450.520 -2451914.314 10 0 60965 41400.00000 0 -11156821.057 -22944232.468 776857.170 10 0 60965 42300.00000 0 -11185811.492 -22593919.863 3990566.609 10 0 60965 43200.00000 0 -10978051.472 -21913927.985 7126905.249 10 0 60965 44100.00000 0 -10496232.594 -20948114.806 10125066.918 10 0 60965 45000.00000 0 -9713507.151 -19748862.074 12926921.803 10 0 60965 45900.00000 0 -8614866.502 -18374819.044 15478138.333 10 0 60965 46800.00000 0 -7198029.149 -16888403.430 17729231.813 10 0 60965 47700.00000 0 -5473800.219 -15353164.074 19636519.948 10 0 60965 48600.00000 0 -3465885.978 -13831115.418 21162967.215 10 0 60965 49500.00000 0 -1210169.548 -12380154.865 22278902.206 10 0 60965 50400.00000 0 1246523.636 -11051670.656 22962594.359 10 0 60965 51300.00000 0 3848121.045 -9888439.830 23200679.120 10 0 60965 52200.00000 0 6531390.233 -8922903.840 22988423.263 10 0 60965 53100.00000 0 9228332.873 -8175893.781 22329824.891 10 0 60965 54000.00000 0 11868787.668 -7655858.511 21237545.666 10 0 60965 54900.00000 0 14383135.183 -7358628.126 19732675.731 10 0 60965 55800.00000 0 16704992.964 -7267722.921 17844334.946 10 0 60965 56700.00000 0 18773789.281 -7355195.173 15609117.101 10 0 60965 57600.00000 0 20537108.397 -7582968.570 13070386.906 10 0 60965 58500.00000 0 21952709.310 -7904619.037 10277442.567 10 0 60965 59400.00000 0 22990133.249 -8267521.777 7284559.636 10 0 60965 60300.00000 0 23631832.175 -8615273.475 4149934.493 10 0 60965 61200.00000 0 23873770.537 -8890286.645 934548.155 10 0 60965 62100.00000 0 23725474.782 -9036445.327 -2299026.953 10 0 60965 63000.00000 0 23209528.523 -9001708.532 -5487853.265 10 0 60965 63900.00000 0 22360534.898 -8740549.767 -8569862.397 10 0 60965 64800.00000 0 21223590.406 -8216127.902 -11485072.433 10 0 60965 65700.00000 0 19852335.314 -7402096.111 -14176763.361 10 0 60965 66600.00000 0 18306663.744 -6283971.053 -16592586.867 10 0 60965 67500.00000 0 16650190.835 -4860003.397 -18685588.230 10 0 60965 68400.00000 0 14947584.440 -3141512.015 -20415120.143 10 0 60965 69300.00000 0 13261874.213 -1152667.095 -21747630.682 10 0 60965 70200.00000 0 11651851.431 1070269.298 -22657310.475 10 0 60965 71100.00000 0 10169668.588 3480213.807 -23126587.110 10 0 60965 72000.00000 0 8858738.942 6020990.691 -23146457.932 10 0 60965 72900.00000 0 7752023.142 8629447.230 -22716655.645 10 0 60965 73800.00000 0 6870773.470 11237867.780 -21845644.303 10 0 60965 74700.00000 0 6223786.867 13776586.369 -20550446.494 10 0 60965 75600.00000 0 5807196.433 16176689.646 -18856305.621 10 0 60965 76500.00000 0 5604808.531 18372698.390 -16796190.190 10 0 60965 77400.00000 0 5588969.842 20305116.696 -14410149.915 10 0 60965 78300.00000 0 5721926.607 21922743.613 -11744536.187 10 0 60965 79200.00000 0 5957617.806 23184651.832 -8851101.914 10 0 60965 80100.00000 0 6243825.933 24061751.838 -5785998.108 10 0 60965 81000.00000 0 6524594.179 24537877.231 -2608686.504 10 0 60965 81900.00000 0 6742807.711 24610346.770 619210.900 10 0 60965 82800.00000 0 6842829.938 24289980.446 3835103.171 10 0 60965 83700.00000 0 6773082.418 23600569.658 6976639.744 10 0 60965 84600.00000 0 6488459.417 22577824.176 9982914.470 10 0 60965 85500.00000 0 5952475.122 21267840.358 12795641.279 10 0 60966 0.00000 0 5139052.757 19725155.042 15360278.806 10 0 60966 900.00000 0 4033879.251 18010465.629 17627083.908 10 0 60966 1800.00000 0 2635268.791 16188113.600 19552070.727 10 0 60966 2700.00000 0 954496.462 14323433.512 21097861.793 10 0 60966 3600.00000 0 -984412.432 12480079.700 22234411.644 10 0 60966 4500.00000 0 -3145430.635 10717440.963 22939590.704 10 0 60966 5400.00000 0 -5481785.291 9088250.678 23199618.083 10 0 60966 6300.00000 0 -7937671.973 7636491.530 23009334.871 10 0 60966 7200.00000 0 -10450356.790 6395681.918 22372312.360 10 0 60966 8100.00000 0 -12952580.795 5387615.290 21300792.519 10 0 60966 9000.00000 0 -15375168.036 4621604.905 19815461.092 10 0 60966 9900.00000 0 -17649729.725 4094265.634 17945056.759 10 0 60966 10800.00000 0 -19711352.506 3789841.922 15725822.876 10 0 60966 11700.00000 0 -21501159.016 3681068.183 13200811.442 10 0 60966 12600.00000 0 -22968633.600 3730525.407 10419051.932 10 0 60966 13500.00000 0 -24073615.559 3892436.627 7434600.588 10 0 60966 14400.00000 0 -24787875.816 4114825.074 4305488.335 10 0 60966 15300.00000 0 -25096210.194 4341943.147 1092587.968 10 0 60966 16200.00000 0 -24997002.829 4516868.506 -2141576.888 10 0 60966 17100.00000 0 -24502235.608 4584156.184 -5334057.050 10 0 60966 18000.00000 0 -23636943.149 4492433.017 -8422712.375 10 0 60966 18900.00000 0 -22438136.445 4196823.052 -11347430.518 10 0 60966 19800.00000 0 -20953240.964 3661099.784 -14051305.043 10 0 60966 20700.00000 0 -19238115.680 2859472.797 -16481748.990 10 0 60966 21600.00000 0 -17354737.175 1777932.128 -18591521.578 10 0 60966 22500.00000 0 -15368646.966 415092.596 -20339647.744 10 0 60966 23400.00000 0 -13346269.911 -1217498.227 -21692212.625 10 0 60966 24300.00000 0 -11352216.590 -3095601.967 -22623015.903 10 0 60966 25200.00000 0 -9446682.689 -5183071.635 -23114073.901 10 0 60966 26100.00000 0 -7683053.927 -7433141.602 -23155960.423 10 0 60966 27000.00000 0 -6105815.918 -9790171.725 -22747980.606 10 0 60966 27900.00000 0 -4748855.173 -12191773.133 -21898175.197 10 0 60966 28800.00000 0 -3634220.838 -14571227.304 -20623155.895 10 0 60966 29700.00000 0 -2771397.234 -16860098.038 -18947775.538 10 0 60966 30600.00000 0 -2157115.833 -18990928.021 -16904639.865 10 0 60966 31500.00000 0 -1775712.778 -20899908.150 -14533470.567 10 0 60966 32400.00000 0 -1600015.251 -22529409.081 -11880332.000 10 0 60966 33300.00000 0 -1592717.993 -23830270.094 -8996736.504 10 0 60966 34200.00000 0 -1708190.894 -24763750.492 -5938645.561 10 0 60966 35100.00000 0 -1894640.578 -25303062.781 -2765385.995 10 0 60966 36000.00000 0 -2096534.240 -25434424.200 461497.928 10 0 60966 36900.00000 0 -2257183.073 -25157583.268 3679434.399 10 0 60966 37800.00000 0 -2321375.990 -24485799.810 6826033.031 10 0 60966 38700.00000 0 -2237952.369 -23445279.655 9840289.702 10 0 60966 39600.00000 0 -1962205.112 -22074087.895 12663764.098 10 0 60966 40500.00000 0 -1458012.468 -20420586.181 15241707.503 10 0 60966 41400.00000 0 -699608.451 -18541459.223 17524119.362 10 0 60966 42300.00000 0 327083.278 -16499412.633 19466712.606 10 0 60966 43200.00000 0 1623608.967 -14360637.725 21031769.526 10 0 60966 44100.00000 0 3178674.263 -12192148.359 22188872.096 10 0 60966 45000.00000 0 4968378.096 -10059100.223 22915492.956 10 0 60966 45900.00000 0 6956982.889 -8022203.467 23197435.805 10 0 60966 46800.00000 0 9098190.795 -6135335.786 23029116.683 10 0 60966 47700.00000 0 11336874.576 -4443454.808 22413680.374 10 0 60966 48600.00000 0 13611192.732 -2980896.278 21362949.152 10 0 60966 49500.00000 0 15855002.306 -1770128.657 19897204.062 10 0 60966 50400.00000 0 18000469.962 -821015.928 18044801.998 10 0 60966 51300.00000 0 19980773.247 -130619.256 15841634.979 10 0 60966 52200.00000 0 21732779.672 316454.315 13330441.071 10 0 60966 53100.00000 0 23199591.531 547170.934 10559979.481 10 0 60966 54000.00000 0 24332849.538 598694.142 7584085.258 10 0 60966 54900.00000 0 25094698.049 516572.637 4460621.667 10 0 60966 55800.00000 0 25459328.513 352568.810 1250350.770 10 0 60966 56700.00000 0 25414035.478 162220.757 -1984255.352 10 0 60966 57600.00000 0 24959739.972 2242.136 -5180238.817 10 0 60966 58500.00000 0 24110957.761 -72128.729 -8275390.688 10 0 60966 59400.00000 0 22895213.584 -9716.738 -11209471.112 10 0 60966 60300.00000 0 21351926.127 234176.127 -13925390.018 10 0 60966 61200.00000 0 19530811.000 695634.522 -16370324.395 10 0 60966 62100.00000 0 17489869.448 1400362.592 -18496749.771 10 0 60966 63000.00000 0 15293047.861 2362361.605 -20263365.462 10 0 60966 63900.00000 0 13007666.909 3583108.926 -21635895.562 10 0 60966 64800.00000 0 10701728.405 5051273.476 -22587750.465 10 0 60966 65700.00000 0 8441212.720 6742980.056 -23100536.623 10 0 60966 66600.00000 0 6287479.525 8622611.724 -23164405.413 10 0 60966 67500.00000 0 4294879.756 10644116.813 -22778235.178 10 0 60966 68400.00000 0 2508677.478 12752766.148 -21949643.753 10 0 60966 69300.00000 0 963366.972 14887287.230 -20694831.947 10 0 60966 70200.00000 0 -318546.337 16982286.555 -19038261.590 10 0 60966 71100.00000 0 -1327252.093 18970859.353 -17012174.782 10 0 60966 72000.00000 0 -2065800.733 20787278.209 -14655963.870 10 0 60966 72900.00000 0 -2549723.681 22369648.855 -12015404.452 10 0 60966 73800.00000 0 -2806125.712 23662422.746 -9141766.179 10 0 60966 74700.00000 0 -2872289.111 24618661.970 -6090818.527 10 0 60966 75600.00000 0 -2793849.592 25201962.339 -2921750.645 10 0 60966 76500.00000 0 -2622621.752 25387954.709 303973.945 10 0 60966 77400.00000 0 -2414166.387 25165322.082 3523805.718 10 0 60966 78300.00000 0 -2225202.713 24536290.259 6675317.710 10 0 60966 79200.00000 0 -2110974.927 23516571.674 9697411.066 10 0 60966 80100.00000 0 -2122684.366 22134764.772 12531494.397 10 0 60966 81000.00000 0 -2305095.687 20431233.937 15122614.449 10 0 60966 81900.00000 0 -2694418.154 18456516.438 17420516.566 10 0 60966 82800.00000 0 -3316551.620 16269322.429 19380614.840 10 0 60966 83700.00000 0 -4185771.542 13934210.811 20964853.666 10 0 60966 84600.00000 0 -5303909.164 11519037.000 22142444.487 10 0 60966 85500.00000 0 -6660062.387 9092278.075 22890463.815 10 0 60967 0.00000 0 -8230850.761 6720345.921 23194301.176 10 0 60967 900.00000 0 -9981206.456 4464998.021 23047948.357 10 0 60967 1800.00000 0 -11865667.762 2380955.996 22454123.793 10 0 60967 2700.00000 0 -13830125.651 513826.097 21424229.679 10 0 60967 3600.00000 0 -15813950.046 -1101589.109 19978141.357 10 0 60967 4500.00000 0 -17752409.124 -2442519.116 18143832.332 10 0 60967 5400.00000 0 -19579281.462 -3498942.717 15956841.107 10 0 60967 6300.00000 0 -21229552.332 -4273764.324 13459589.132 10 0 60967 7200.00000 0 -22642081.385 -4782442.237 10700562.262 10 0 60967 8100.00000 0 -23762129.581 -5052084.751 7733370.985 10 0 60967 9000.00000 0 -24543638.673 -5120052.666 4615707.368 10 0 60967 9900.00000 0 -24951166.507 -5032127.729 1408219.149 10 0 60967 10800.00000 0 -24961395.746 -4840325.286 -1826676.688 10 0 60967 11700.00000 0 -24564151.469 -4600444.736 -5026016.994 10 0 60967 12600.00000 0 -23762883.959 -4369462.751 -8127527.306 10 0 60967 13500.00000 0 -22574595.727 -4202881.065 -11070843.323 10 0 60967 14400.00000 0 -21029215.523 -4152142.535 -13798694.145 10 0 60967 15300.00000 0 -19168445.671 -4262226.277 -16258023.205 10 0 60967 16200.00000 0 -17044131.416 -4569524.759 -18401024.461 10 0 60967 17100.00000 0 -14716221.125 -5100093.588 -20186073.271 10 0 60967 18000.00000 0 -12250403.333 -5868348.607 -21578533.838 10 0 60967 18900.00000 0 -9715519.912 -6876265.711 -22551427.848 10 0 60967 19800.00000 0 -7180863.664 -8113117.384 -23085951.886 10 0 60967 20700.00000 0 -4713473.075 -9555757.153 -23171834.338 10 0 60967 21600.00000 0 -2375536.586 -11169440.110 -22807525.696 10 0 60967 22500.00000 0 -222013.697 -12909145.135 -22000219.396 10 0 60967 23400.00000 0 1701429.135 -14721343.510 -20765703.516 10 0 60967 24300.00000 0 3360083.352 -16546140.049 -19128046.778 10 0 60967 25200.00000 0 4731396.245 -18319697.382 -17119125.345 10 0 60967 26100.00000 0 5805653.916 -19976842.278 -14777999.800 10 0 60967 27000.00000 0 6586122.674 -21453745.347 -12150154.484 10 0 60967 27900.00000 0 7088644.862 -22690562.396 -9286613.832 10 0 60967 28800.00000 0 7340707.781 -23633927.298 -6242952.808 10 0 60967 29700.00000 0 7380026.337 -24239192.354 -3078220.424 10 0 60967 30600.00000 0 7252700.213 -24472322.689 146202.927 10 0 60967 31500.00000 0 7011024.115 -24311365.514 3367792.294 10 0 60967 32400.00000 0 6711043.979 -23747432.878 6524086.314 10 0 60967 33300.00000 0 6409962.575 -22785156.747 9553893.452 10 0 60967 34200.00000 0 6163504.148 -21442597.190 12398473.166 10 0 60967 35100.00000 0 6023349.263 -19750607.236 15002669.432 10 0 60967 36000.00000 0 6034748.081 -17751680.404 17315975.085 10 0 60967 36900.00000 0 6234412.683 -15498328.419 19293506.759 10 0 60967 37800.00000 0 6648777.430 -13051055.902 20896872.101 10 0 60967 38700.00000 0 7292700.990 -10476015.471 22094912.900 10 0 60967 39600.00000 0 8168665.312 -7842439.808 22864310.141 10 0 60967 40500.00000 0 9266506.201 -5219956.410 23190039.482 10 0 60967 41400.00000 0 10563688.124 -2675895.558 23065668.353 10 0 60967 42300.00000 0 12026113.252 -272702.444 22493488.662 10 0 60967 43200.00000 0 13609432.462 1934439.805 21484481.990 10 0 60967 44100.00000 0 15260805.059 3899678.053 20058117.201 10 0 60967 45000.00000 0 16921034.951 5588162.385 18241983.412 10 0 60967 45900.00000 0 18526994.954 6977255.256 16071264.393 10 0 60967 46800.00000 0 20014238.423 8057226.345 13588063.558 10 0 60967 47700.00000 0 21319688.928 8831404.224 10840591.762 10 0 60967 48600.00000 0 22384294.909 9315778.793 7882233.067 10 0 60967 49500.00000 0 23155537.168 9538071.590 4770506.263 10 0 60967 50400.00000 0 23589682.760 9536313.690 1565942.488 10 0 60967 51300.00000 0 23653689.298 9356991.988 -1669098.796 10 0 60967 52200.00000 0 23326678.202 9052843.219 -4871651.690 10 0 60967 53100.00000 0 22600913.697 8680390.187 -7979378.734 10 0 60967 54000.00000 0 21482245.356 8297325.846 -10931793.645 10 0 60967 54900.00000 0 19989994.812 7959857.327 -13671447.014 10 0 60967 55800.00000 0 18156291.035 7720123.668 -16145050.870 10 0 60967 56700.00000 0 16024881.993 7623797.672 -18304519.546 10 0 60967 57600.00000 0 13649472.635 7707974.215 -20107906.197 10 0 60967 58500.00000 0 11091659.147 7999434.865 -21520216.711 10 0 60967 59400.00000 0 8418546.133 8513362.432 -22514085.469 10 0 60967 60300.00000 0 5700146.420 9252559.753 -23070300.420 10 0 60967 61200.00000 0 3006671.947 10207205.547 -23178167.986 10 0 60967 62100.00000 0 405828.290 11355157.430 -22835711.568 10 0 60967 63000.00000 0 -2039775.210 12662789.196 -22049700.650 10 0 60967 63900.00000 0 -4274992.900 14086326.992 -20835510.648 10 0 60967 64800.00000 0 -6254190.671 15573628.288 -19216816.839 10 0 60967 65700.00000 0 -7942890.548 17066329.043 -17225128.681 10 0 60967 66600.00000 0 -9318945.266 18502269.165 -14899173.822 10 0 60967 67500.00000 0 -10373195.728 19818094.782 -12284143.777 10 0 60967 68400.00000 0 -11109585.795 20951928.516 -9430815.874 10 0 60967 69300.00000 0 -11544731.417 21845996.027 -6394568.369 10 0 60967 70200.00000 0 -11706963.797 22449098.956 -3234307.707 10 0 60967 71100.00000 0 -11634888.214 22718830.739 -11328.527 10 0 60967 72000.00000 0 -11375520.170 22623442.461 3211871.573 10 0 60967 72900.00000 0 -10982078.191 22143280.516 6372799.709 10 0 60967 73800.00000 0 -10511526.757 21271735.659 9410174.607 10 0 60967 74700.00000 0 -10021973.218 20015663.411 12265109.526 10 0 60967 75600.00000 0 -9570028.488 18395257.748 14882248.595 10 0 60967 76500.00000 0 -9208242.676 16443382.706 17210834.967 10 0 60967 77400.00000 0 -8982723.629 14204388.996 19205690.523 10 0 60967 78300.00000 0 -8931038.559 11732463.991 20828088.658 10 0 60967 79200.00000 0 -9080487.168 9089582.659 22046503.754 10 0 60967 80100.00000 0 -9446819.163 6343143.518 22837223.191 10 0 60967 81000.00000 0 -10033450.632 3563386.595 23184810.286 10 0 60967 81900.00000 0 -10831213.034 820699.388 23082409.252 10 0 60967 82800.00000 0 -11818646.466 -1817078.359 22531885.971 10 0 60967 83700.00000 0 -12962826.215 -4287240.196 21543801.399 10 0 60967 84600.00000 0 -14220689.337 -6534582.164 20137217.305 10 0 60967 85500.00000 0 -15540806.950 -8513457.678 18339337.190 10 0 60968 0.00000 0 -16865528.941 -10189432.847 16184988.489 10 0 60968 900.00000 0 -18133412.600 -11540474.251 13715953.843 10 0 60968 1800.00000 0 -19281831.808 -12557617.558 10980166.491 10 0 60968 2700.00000 0 -20249659.432 -13245092.141 8030780.912 10 0 60968 3600.00000 0 -20979907.797 -13619894.429 4925139.213 10 0 60968 4500.00000 0 -21422215.857 -13710829.330 1723652.386 10 0 60968 5400.00000 0 -21535076.972 -13557060.562 -1511381.243 10 0 60968 6300.00000 0 -21287712.024 -13206231.972 -4716996.614 10 0 60968 7200.00000 0 -20661507.523 -12712240.272 -7830796.775 10 0 60968 8100.00000 0 -19650956.824 -12132754.647 -10792176.827 10 0 60968 9000.00000 0 -18264063.744 -11526589.462 -13543512.023 10 0 60968 9900.00000 0 -16522190.826 -10951042.502 -16031285.879 10 0 60968 10800.00000 0 -14459358.147 -10459312.494 -18207135.637 10 0 60968 11700.00000 0 -12121021.888 -10098105.968 -20028794.342 10 0 60968 12600.00000 0 -9562383.844 -9905535.160 -21460911.117 10 0 60968 13500.00000 0 -6846302.684 -9909395.989 -22475733.999 10 0 60968 14400.00000 0 -4040894.252 -10125898.661 -23053642.626 10 0 60968 15300.00000 0 -1216920.974 -10558904.162 -23183521.154 10 0 60968 16200.00000 0 1554921.152 -11199698.293 -22862965.032 10 0 60968 17100.00000 0 4206705.625 -12027312.273 -22098318.427 10 0 60968 18000.00000 0 6675856.913 -13009375.923 -20904542.324 10 0 60968 18900.00000 0 8907504.112 -14103467.148 -19304916.446 10 0 60968 19800.00000 0 10856510.252 -15258900.742 -17330581.188 10 0 60968 20700.00000 0 12489094.344 -16418881.233 -15019928.678 10 0 60968 21600.00000 0 13783980.320 -17522929.285 -12417854.862 10 0 60968 22500.00000 0 14733026.726 -18509479.860 -9574887.063 10 0 60968 23400.00000 0 15341312.584 -19318543.078 -6546203.848 10 0 60968 24300.00000 0 15626677.538 -19894316.167 -3390566.052 10 0 60968 25200.00000 0 15618737.030 -20187636.863 -169179.544 10 0 60968 26100.00000 0 15357415.088 -20158175.248 3055488.367 10 0 60968 27000.00000 0 14891057.381 -19776271.903 6220916.055 10 0 60968 27900.00000 0 14274204.589 -19024345.019 9265735.065 10 0 60968 28800.00000 0 13565120.222 -17897807.076 12130914.729 10 0 60968 29700.00000 0 12823177.086 -16405452.103 14760901.278 10 0 60968 30600.00000 0 12106212.411 -14569296.560 17104689.796 10 0 60968 31500.00000 0 11467962.731 -12423879.532 19116808.650 10 0 60968 32400.00000 0 10955686.247 -10015050.289 20758197.867 10 0 60968 33300.00000 0 10608072.421 -7398292.430 21996964.942 10 0 60968 34200.00000 0 10453526.618 -4636652.969 22809003.809 10 0 60968 35100.00000 0 10508901.986 -1798360.993 23178465.270 10 0 60968 36000.00000 0 10778732.206 1045766.639 23098069.808 10 0 60968 36900.00000 0 11254997.979 3825026.154 22569256.488 10 0 60968 37800.00000 0 11917437.941 6471523.325 21602164.566 10 0 60968 38700.00000 0 12734392.004 8922754.516 20215447.412 10 0 60968 39600.00000 0 13664142.803 11123965.704 18435921.395 10 0 60968 40500.00000 0 14656699.946 13030191.788 16298055.504 10 0 60968 41400.00000 0 15655952.877 14607891.454 13843310.516 10 0 60968 42300.00000 0 16602102.272 15836109.403 11119339.687 10 0 60968 43200.00000 0 17434267.710 16707117.411 8179065.748 10 0 60968 44100.00000 0 18093161.386 17226507.415 5079651.843 10 0 60968 45000.00000 0 18523714.347 17412732.927 1881386.432 10 0 60968 45900.00000 0 18677543.332 17296118.519 -1353495.722 10 0 60968 46800.00000 0 18515152.744 16917379.765 -4562032.812 10 0 60968 47700.00000 0 18007777.319 16325717.022 -7681770.739 10 0 60968 48600.00000 0 17138786.313 15576564.664 -10651988.179 10 0 60968 49500.00000 0 15904588.646 14729092.104 -13414887.045 10 0 60968 50400.00000 0 14314999.816 13843563.472 -15916724.123 10 0 60968 51300.00000 0 12393054.309 12978668.671 -18108861.122 10 0 60968 52200.00000 0 10174270.848 12188939.435 -19948712.321 10 0 60968 53100.00000 0 7705400.998 11522360.137 -21400571.252 10 0 60968 54000.00000 0 5042713.351 11018274.341 -22436300.613 10 0 60968 54900.00000 0 2249884.910 10705675.281 -23035872.582 10 0 60968 55800.00000 0 -604412.450 10601951.817 -23187749.726 10 0 60968 56700.00000 0 -3449130.127 10712142.014 -22889099.972 10 0 60968 57600.00000 0 -6213557.018 11028724.890 -22145842.310 10 0 60968 58500.00000 0 -8830017.575 11531958.245 -20972523.084 10 0 60968 59400.00000 0 -11236442.419 12190747.550 -19392025.874 10 0 60968 60300.00000 0 -13378705.812 12964008.645 -17435121.027 10 0 60968 61200.00000 0 -15212634.031 13802466.442 -15139863.812 10 0 60968 62100.00000 0 -16705602.554 14650813.621 -12550852.962 10 0 60968 63000.00000 0 -17837657.066 15450138.329 -9718363.912 10 0 60968 63900.00000 0 -18602113.087 16140518.679 -6697373.461 10 0 60968 64800.00000 0 -19005610.715 16663674.860 -3546494.641 10 0 60968 65700.00000 0 -19067623.642 16965567.298 -326842.234 10 0 60968 66600.00000 0 -18819444.268 16998831.529 2899149.131 10 0 60968 67500.00000 0 -18302688.558 16724947.265 6068931.561 10 0 60968 68400.00000 0 -17567384.190 16116050.261 9121051.963 10 0 60968 69300.00000 0 -16669722.868 15156310.467 11996338.341 10 0 60968 70200.00000 0 -15669571.518 13842818.092 14639041.650 10 0 60968 71100.00000 0 -14627846.967 12185939.608 16997911.494 10 0 60968 72000.00000 0 -13603864.280 10209127.811 19027185.233 10 0 60968 72900.00000 0 -12652769.821 7948192.633 20687471.877 10 0 60968 73800.00000 0 -11823166.457 5450061.677 21946514.154 10 0 60968 74700.00000 0 -11155030.278 2771080.573 22779814.382 10 0 60968 75600.00000 0 -10678006.021 -25077.786 23171112.316 10 0 60968 76500.00000 0 -10410152.686 -2869809.889 23112705.769 10 0 60968 77400.00000 0 -10357192.153 -5692186.094 22605607.579 10 0 60968 78300.00000 0 -10512292.772 -8421656.204 21659535.403 10 0 60968 79200.00000 0 -10856397.610 -10990744.878 20292733.790 10 0 60968 80100.00000 0 -11359084.352 -13337625.701 18531631.032 10 0 60968 81000.00000 0 -11979921.481 -15408467.351 16410336.417 10 0 60968 81900.00000 0 -12670264.368 -17159454.412 13969986.545 10 0 60968 82800.00000 0 -13375416.123 -18558398.519 11257952.507 10 0 60968 83700.00000 0 -14037062.280 -19585872.406 8326922.610 10 0 60968 84600.00000 0 -14595876.370 -20235819.238 5233878.079 10 0 60968 85500.00000 0 -14994185.737 -20515611.604 2038981.710 99